• In United Kingdom
  • List of Countries
  • For 7 days
  • Water Temperature
  • Satellite Maps
  • Weather Map
  • Weather Widgets
  • user-avatar
    Login

    Hourly Weather Shirokopole

    Today, 19 July, Thursday

    Time Temperature Precipitation Wind Pressure Humidity
    00:00 +23°C° 0 mm 2 mps 745 mmHg 71%
    01:00 +23°C° 0 mm 2 mps 745 mmHg 72%
    02:00 +21°C° 0 mm 2 mps 745 mmHg 73%
    03:00 +21°C° 0 mm 2 mps 745 mmHg 75%
    04:00 +23°C° 0 mm 2 mps 745 mmHg 73%
    05:00 +23°C° 0 mm 2 mps 745 mmHg 72%
    06:00 +24°C° 0 mm 3 mps 745 mmHg 70%
    07:00 +26°C° 0 mm 3 mps 746 mmHg 64%
    08:00 +28°C° 0 mm 4 mps 746 mmHg 57%
    09:00 +29°C° 0 mm 5 mps 746 mmHg 50%
    10:00 +30°C° 0 mm 5 mps 746 mmHg 47%
    11:00 +32°C° 0 mm 5 mps 746 mmHg 44%
    12:00 +33°C° 0 mm 5 mps 746 mmHg 41%
    13:00 +33°C° 0 mm 5 mps 746 mmHg 40%
    14:00 +34°C° 0 mm 5 mps 746 mmHg 38%
    15:00 +34°C° 0 mm 5 mps 746 mmHg 37%
    16:00 +34°C° 0 mm 4 mps 746 mmHg 39%
    17:00 +33°C° 0 mm 3 mps 746 mmHg 42%
    18:00 +32°C° 0 mm 2 mps 746 mmHg 44%
    19:00 +30°C° 0 mm 2 mps 746 mmHg 48%
    20:00 +28°C° 0 mm 1 mps 746 mmHg 51%
    21:00 +25°C° 0 mm 0 mps 746 mmHg 54%
    22:00 +26°C° 0.5 mm 1 mps 746 mmHg 57%
    23:00 +26°C° 0.5 mm 1 mps 746 mmHg 59%

    Tomorrow, 20 July, Friday

    Time Temperature Precipitation Wind Pressure Humidity
    00:00 +25°C° 0.5 mm 2 mps 746 mmHg 62%
    01:00 +24°C° 0.3 mm 2 mps 746 mmHg 65%
    02:00 +24°C° 0.3 mm 2 mps 747 mmHg 67%
    03:00 +23°C° 0.3 mm 2 mps 747 mmHg 70%
    04:00 +24°C° 1.3 mm 2 mps 747 mmHg 71%
    05:00 +24°C° 1.3 mm 1 mps 747 mmHg 72%
    06:00 +24°C° 1.3 mm 1 mps 747 mmHg 74%
    07:00 +26°C° 0.1 mm 2 mps 747 mmHg 68%
    08:00 +27°C° 0.1 mm 2 mps 747 mmHg 62%
    09:00 +29°C° 0.1 mm 3 mps 747 mmHg 57%
    10:00 +30°C° 0.1 mm 4 mps 747 mmHg 55%
    11:00 +30°C° 0.1 mm 5 mps 747 mmHg 53%
    12:00 +30°C° 0.1 mm 6 mps 746 mmHg 51%
    13:00 +29°C° 0.6 mm 5 mps 746 mmHg 56%
    14:00 +27°C° 0.6 mm 5 mps 746 mmHg 60%
    15:00 +26°C° 0.6 mm 4 mps 746 mmHg 65%
    16:00 +26°C° 0.4 mm 3 mps 746 mmHg 66%
    17:00 +26°C° 0.4 mm 3 mps 746 mmHg 66%
    18:00 +26°C° 0.4 mm 2 mps 746 mmHg 67%
    19:00 +25°C° 0.2 mm 2 mps 746 mmHg 69%
    20:00 +24°C° 0.2 mm 3 mps 746 mmHg 72%
    21:00 +22°C° 0.2 mm 3 mps 746 mmHg 74%
    22:00 +22°C° 0.3 mm 3 mps 746 mmHg 77%
    23:00 +22°C° 0.3 mm 3 mps 746 mmHg 79%

    Day after tomorrow, 21 July, Saturday

    Time Temperature Precipitation Wind Pressure Humidity
    00:00 +21°C° 0.3 mm 2 mps 746 mmHg 81%
    01:00 +21°C° 0 mm 2 mps 746 mmHg 82%
    02:00 +22°C° 0 mm 1 mps 746 mmHg 83%
    03:00 +21°C° 0 mm 1 mps 746 mmHg 84%
    04:00 +22°C° 0 mm 1 mps 746 mmHg 83%
    05:00 +23°C° 0 mm 1 mps 746 mmHg 82%
    06:00 +23°C° 0 mm 1 mps 746 mmHg 81%
    07:00 +25°C° 0 mm 1 mps 746 mmHg 74%
    08:00 +26°C° 0 mm 2 mps 746 mmHg 68%
    09:00 +28°C° 0 mm 2 mps 747 mmHg 62%
    10:00 +29°C° 0 mm 2 mps 746 mmHg 57%
    11:00 +31°C° 0 mm 2 mps 746 mmHg 51%
    12:00 +32°C° 0 mm 1 mps 746 mmHg 46%
    13:00 +32°C° 0 mm 1 mps 746 mmHg 46%
    14:00 +32°C° 0 mm 1 mps 746 mmHg 46%
    15:00 +30°C° 0 mm 0 mps 746 mmHg 46%
    16:00 +30°C° 0 mm 0 mps 746 mmHg 47%
    17:00 +30°C° 0 mm 0 mps 746 mmHg 47%
    18:00 +32°C° 0 mm 1 mps 746 mmHg 48%
    19:00 +30°C° 0.2 mm 1 mps 746 mmHg 52%
    20:00 +29°C° 0.2 mm 1 mps 746 mmHg 57%
    21:00 +27°C° 0.2 mm 2 mps 746 mmHg 61%
    22:00 +26°C° 0.6 mm 2 mps 746 mmHg 68%
    23:00 +25°C° 0.6 mm 2 mps 746 mmHg 75%

    22 July, Sunday

    Time Temperature Precipitation Wind Pressure Humidity
    00:00 +23°C° 0.6 mm 2 mps 746 mmHg 83%
    01:00 +23°C° 0.2 mm 2 mps 746 mmHg 83%
    02:00 +23°C° 0.2 mm 1 mps 746 mmHg 84%
    03:00 +23°C° 0.2 mm 1 mps 746 mmHg 84%
    04:00 +23°C° 0 mm 1 mps 746 mmHg 83%
    05:00 +24°C° 0 mm 1 mps 746 mmHg 81%
    06:00 +24°C° 0 mm 1 mps 747 mmHg 80%
    07:00 +26°C° 0.4 mm 1 mps 747 mmHg 74%
    08:00 +27°C° 0.4 mm 1 mps 747 mmHg 69%
    09:00 +28°C° 0.4 mm 1 mps 747 mmHg 63%
    10:00 +29°C° 0.4 mm 2 mps 747 mmHg 58%
    11:00 +31°C° 0.4 mm 2 mps 747 mmHg 52%
    12:00 +32°C° 0.4 mm 2 mps 747 mmHg 46%
    13:00 +32°C° 0 mm 2 mps 747 mmHg 47%
    14:00 +32°C° 0 mm 2 mps 747 mmHg 47%
    15:00 +32°C° 0 mm 2 mps 747 mmHg 48%
    16:00 +31°C° 0.1 mm 2 mps 747 mmHg 50%
    17:00 +31°C° 0.1 mm 2 mps 747 mmHg 52%
    18:00 +31°C° 0.1 mm 2 mps 747 mmHg 54%
    19:00 +29°C° 0.8 mm 2 mps 747 mmHg 59%
    20:00 +28°C° 0.8 mm 2 mps 747 mmHg 65%
    21:00 +26°C° 0.8 mm 2 mps 747 mmHg 70%
    22:00 +25°C° 1.3 mm 2 mps 747 mmHg 74%
    23:00 +25°C° 1.3 mm 3 mps 747 mmHg 78%

    23 July, Monday

    Time Temperature Precipitation Wind Pressure Humidity
    00:00 +24°C° 1.3 mm 3 mps 747 mmHg 82%
    01:00 +24°C° 0.6 mm 3 mps 747 mmHg 83%
    02:00 +24°C° 0.6 mm 3 mps 747 mmHg 84%
    03:00 +22°C° 0.6 mm 3 mps 747 mmHg 86%
    04:00 +24°C° 0.4 mm 3 mps 748 mmHg 85%
    05:00 +24°C° 0.4 mm 3 mps 748 mmHg 84%
    06:00 +24°C° 0.4 mm 3 mps 748 mmHg 84%
    07:00 +25°C° 1 mm 4 mps 748 mmHg 81%
    08:00 +25°C° 1 mm 5 mps 748 mmHg 78%
    09:00 +26°C° 1 mm 6 mps 748 mmHg 75%
    10:00 +27°C° 0.5 mm 5 mps 749 mmHg 69%
    11:00 +28°C° 0.5 mm 5 mps 749 mmHg 62%
    12:00 +29°C° 0.5 mm 5 mps 749 mmHg 56%
    13:00 +29°C° 0.2 mm 5 mps 749 mmHg 54%
    14:00 +30°C° 0.2 mm 5 mps 749 mmHg 51%
    15:00 +30°C° 0.2 mm 5 mps 749 mmHg 49%
    16:00 +30°C° 0.2 mm 5 mps 749 mmHg 51%
    17:00 +29°C° 0.2 mm 5 mps 749 mmHg 53%
    18:00 +28°C° 0.2 mm 4 mps 749 mmHg 55%
    19:00 +27°C° 0.9 mm 4 mps 749 mmHg 57%
    20:00 +26°C° 0.9 mm 5 mps 749 mmHg 59%
    21:00 +23°C° 0.9 mm 5 mps 749 mmHg 62%
    22:00 +23°C° 0.8 mm 4 mps 750 mmHg 61%
    23:00 +22°C° 0.8 mm 4 mps 750 mmHg 60%

    24 July, Tuesday

    Time Temperature Precipitation Wind Pressure Humidity
    00:00 +21°C° 0.8 mm 4 mps 750 mmHg 60%
    01:00 +21°C° 0.2 mm 4 mps 750 mmHg 59%
    02:00 +21°C° 0.2 mm 4 mps 750 mmHg 58%
    03:00 +20°C° 0.2 mm 4 mps 750 mmHg 57%
    04:00 +20°C° 0 mm 4 mps 751 mmHg 57%
    05:00 +20°C° 0 mm 4 mps 751 mmHg 57%
    06:00 +20°C° 0 mm 4 mps 751 mmHg 57%
    07:00 +22°C° 0 mm 5 mps 751 mmHg 54%
    08:00 +23°C° 0 mm 5 mps 752 mmHg 50%
    09:00 +26°C° 0 mm 5 mps 752 mmHg 47%
    10:00 +27°C° 0 mm 6 mps 752 mmHg 44%
    11:00 +29°C° 0 mm 6 mps 752 mmHg 41%
    12:00 +30°C° 0 mm 6 mps 752 mmHg 38%
    13:00 +32°C° 0 mm 6 mps 752 mmHg 36%
    14:00 +33°C° 0 mm 6 mps 752 mmHg 34%
    15:00 +33°C° 0 mm 5 mps 752 mmHg 32%
    16:00 +32°C° 0 mm 5 mps 752 mmHg 36%
    17:00 +32°C° 0 mm 4 mps 752 mmHg 39%
    18:00 +30°C° 0 mm 4 mps 752 mmHg 42%
    19:00 +29°C° 0 mm 4 mps 752 mmHg 42%
    20:00 +27°C° 0 mm 5 mps 752 mmHg 43%
    21:00 +26°C° 0 mm 5 mps 753 mmHg 43%
    22:00 +25°C° 0 mm 5 mps 753 mmHg 41%
    23:00 +25°C° 0 mm 5 mps 753 mmHg 39%
    Show more